EW4365 Weather Reports


time (UTC)temp
C
wind
direction
speed
KPH
gust
KPH
rain 1hr
cm
rain 24hr
cm
rain mn
cm
humidity
%
barometer
mb
20260507020054 7 329 0.0 0.0 0.00 1.19 0.76 79 1014.3
20260507014551 7 329 0.0 0.0 0.00 1.65 0.76 79 1014.2
20260507013049 8 329 0.0 0.0 0.00 1.65 0.76 75 1014.3
20260507011549 9 329 0.0 0.0 0.00 1.65 0.76 71 1014.2
20260507010104 10 329 0.0 0.0 0.00 1.65 0.76 69 1013.9
20260507004546 10 329 0.0 3.2 0.00 2.18 0.76 65 1013.7
20260507003045 10 329 1.6 6.4 0.00 2.18 0.76 63 1013.6
20260507001554 10 329 1.6 4.8 0.00 2.18 0.76 61 1013.4
20260507000044 10 329 1.6 4.8 0.00 2.18 0.76 61 1013.4
20260506234543 11 335 1.6 8.0 0.00 2.46 0.76 62 1013.4
20260506233052 11 329 3.2 8.0 0.00 2.46 0.76 57 1013.4
20260506231543 11 355 3.2 8.0 0.00 2.46 0.76 56 1013.6
20260506230045 11 360 6.4 16.1 0.00 2.46 0.76 54 1013.7
20260506224542 11 326 4.8 16.1 0.00 2.54 0.76 55 1013.9
20260506223043 11 17 6.4 12.9 0.00 2.54 0.76 57 1013.7
20260506221544 11 337 6.4 14.5 0.00 2.54 0.76 57 1013.6
20260506220046 11 334 4.8 9.7 0.00 2.54 0.76 59 1013.5
20260506214534 11 346 4.8 16.1 0.00 2.90 0.76 59 1013.2
20260506213035 11 355 6.4 16.1 0.00 2.90 0.76 57 1013.0
20260506211537 11 355 6.4 14.5 0.00 2.90 0.76 57 1013.0
20260506210031 11 334 6.4 12.9 0.00 2.90 0.76 57 1013.0
20260506204530 12 340 8.0 16.1 0.00 3.12 0.76 55 1012.8
20260506203029 12 341 8.0 14.5 0.00 3.12 0.76 56 1012.6
20260506201529 12 324 8.0 16.1 0.00 3.12 0.76 55 1012.6
20260506200027 11 311 6.4 12.9 0.00 3.12 0.76 57 1012.6
20260506194530 11 334 6.4 16.1 0.00 3.12 0.76 56 1012.9
20260506193031 12 321 3.2 14.5 0.00 3.12 0.76 58 1012.9
20260506191526 12 355 4.8 16.1 0.00 3.12 0.76 60 1012.7
20260506190025 12 321 6.4 17.7 0.00 3.12 0.76 58 1012.5
20260506184526 12 303 4.8 17.7 0.00 3.12 0.76 59 1012.4
20260506183023 12 313 8.0 20.9 0.00 3.12 0.76 59 1012.5
20260506181522 12 5 11.3 19.3 0.00 3.12 0.76 61 1012.7
20260506180021 12 350 9.7 17.7 0.00 3.12 0.76 60 1012.6
20260506174519 13 27 8.0 19.3 0.00 3.12 0.76 59 1012.5
20260506173018 12 340 12.9 20.9 0.00 3.12 0.76 61 1012.6
20260506171520 12 334 6.4 17.7 0.00 3.12 0.76 63 1012.5
20260506170015 12 10 11.3 16.1 0.00 3.12 0.76 70 1012.4
20260506164511 12 5 11.3 19.3 0.00 3.12 0.76 67 1012.5
20260506163009 12 15 9.7 19.3 0.00 3.12 0.76 66 1012.3
20260506161506 11 30 6.4 20.9 0.00 3.12 0.76 69 1012.5
20260506160003 11 348 9.7 17.7 0.00 3.12 0.76 74 1012.4
20260506154601 11 360 4.8 14.5 0.00 3.12 0.76 72 1012.3
20260506153055 10 40 11.3 19.3 0.00 3.12 0.76 74 1011.9
20260506151552 10 296 8.0 17.7 0.00 3.12 0.76 73 1011.8
20260506150058 10 13 9.7 17.7 0.00 3.12 0.76 77 1011.9
20260506144601 9 341 8.0 19.3 0.00 3.12 0.76 76 1011.7
20260506143051 9 355 8.0 16.1 0.00 3.12 0.76 78 1011.6
20260506141541 8 319 11.3 19.3 0.00 3.12 0.76 77 1011.2
20260506140054 8 9 8.0 19.3 0.00 3.12 0.76 80 1011.1
20260506134536 8 38 9.7 17.7 0.00 3.12 0.76 81 1010.9
20260506133034 7 5 9.7 17.7 0.00 3.12 0.76 83 1010.9
20260506131541 7 5 6.4 14.5 0.00 3.12 0.76 85 1010.9
20260506130031 7 19 6.4 14.5 0.00 3.12 0.76 87 1010.9
20260506124528 7 355 6.4 9.7 0.00 3.12 0.76 88 1010.7
20260506123036 6 17 6.4 9.7 0.00 3.12 0.76 88 1010.3
20260506121524 6 355 6.4 14.5 0.00 3.12 0.76 88 1010.1
20260506120029 6 355 8.0 16.1 0.00 3.12 0.76 89 1009.8
20260506114521 6 355 8.0 12.9 0.00 3.12 0.76 89 1009.7
20260506113017 6 13 9.7 16.1 0.00 3.12 0.76 90 1009.1
20260506111516 6 17 9.7 19.3 0.00 3.12 0.76 91 1008.6
20260506110014 6 36 8.0 17.7 0.00 3.12 0.76 93 1008.6
20260506104522 6 336 8.0 16.1 0.00 3.12 0.76 94 1009.1
20260506103012 7 17 6.4 14.5 0.00 3.12 0.76 95 1008.3
20260506101509 7 21 11.3 20.9 0.00 3.12 0.76 95 1008.5
20260506100016 7 11 9.7 19.3 0.00 3.12 0.76 96 1008.1
20260506094506 7 28 4.8 12.9 0.03 3.12 0.76 95 1007.8
20260506093004 7 36 6.4 12.9 0.05 3.12 0.76 95 1007.2
20260506091503 7 51 4.8 16.1 0.08 3.12 0.76 96 1007.1
20260506090002 7 18 9.7 17.7 0.15 3.12 0.76 96 1007.3
20260506084602 7 360 6.4 16.1 0.13 3.10 0.71 96 1007.7
20260506083101 7 360 6.4 17.7 0.10 3.07 0.71 96 1007.9
20260506081608 7 360 11.3 24.1 0.10 3.05 0.69 95 1007.7
20260506073053 7 11 11.3 20.9 0.18 2.97 0.61 96 1007.1
20260506071550 7 26 8.0 22.5 0.18 2.92 0.58 96 1007.3
20260506061548 7 22 9.7 19.3 0.18 2.74 0.38 96 1007.1
20260506044545 8 355 12.9 20.9 0.08 2.44 0.08 96 1007.7
20260506043030 8 12 4.8 12.9 0.03 2.36 0.00 96 1007.4
20260506041526 8 34 4.8 11.3 0.08 2.36 0.00 96 1007.3
20260506040023 8 37 6.4 9.7 0.15 2.36 0.00 96 1007.2
20260506034523 8 42 1.6 9.7 0.25 2.36 2.36 96 1007.3
20260506033027 8 38 4.8 17.7 0.30 2.34 2.34 95 1007.5
20260506031538 8 28 9.7 17.7 0.30 2.29 2.29 95 1007.8
20260506030020 8 13 8.0 17.7 0.28 2.21 2.21 95 1008.0
20260506024526 8 5 14.5 22.5 0.25 2.11 2.11 95 1008.2
20260506023014 9 37 9.7 17.7 0.25 2.03 2.03 96 1008.1
20260506021514 9 26 8.0 19.3 0.28 1.98 1.98 95 1008.0